Time,TemperatureF,DewpointF,PressureIn,WindDirection,WindDirectionDegrees,WindSpeedMPH,WindSpeedGustMPH,Humidity,HourlyPrecipIn,Conditions,Clouds,dailyrainin,SoftwareType,DateUTC
2013-06-14 01:45:00,80.9,72.2,29.91,SE,138,3.0,4.0,75,0.00,,,0.00,Wunderground v.1.15,2013-06-14 06:45:00,
2013-06-14 01:55:00,80.6,71.9,29.91,SE,128,4.0,4.0,75,0.00,,,0.00,Wunderground v.1.15,2013-06-14 06:55:00,
2013-06-14 02:00:00,80.5,71.8,29.91,ESE,117,3.0,4.0,75,0.00,,,0.00,Wunderground v.1.15,2013-06-14 07:00:00,
2013-06-14 02:05:00,80.4,71.7,29.91,ESE,122,3.0,4.0,75,0.00,,,0.00,Wunderground v.1.15,2013-06-14 07:05:00,
2013-06-14 02:10:00,80.4,72.1,29.91,ESE,123,4.0,4.0,76,0.00,,,0.00,Wunderground v.1.15,2013-06-14 07:10:00,
2013-06-14 02:20:00,80.3,72.0,29.91,ESE,110,3.0,3.0,76,0.00,,,0.00,Wunderground v.1.15,2013-06-14 07:20:00,
2013-06-14 02:25:00,80.3,72.0,29.91,SE,130,3.0,3.0,76,0.00,,,0.00,Wunderground v.1.15,2013-06-14 07:25:00,
2013-06-14 02:30:00,80.2,71.9,29.91,SE,130,2.0,2.0,76,0.00,,,0.00,Wunderground v.1.15,2013-06-14 07:30:00,
2013-06-14 02:35:00,80.0,71.8,29.90,ESE,116,2.0,3.0,76,0.00,,,0.00,Wunderground v.1.15,2013-06-14 07:35:00,
2013-06-14 02:45:00,79.6,71.8,29.90,ESE,119,2.0,3.0,77,0.00,,,0.00,Wunderground v.1.15,2013-06-14 07:45:00,
2013-06-14 02:50:00,79.4,71.6,29.90,ESE,120,2.0,3.0,77,0.00,,,0.00,Wunderground v.1.15,2013-06-14 07:50:00,
2013-06-14 02:55:00,79.3,71.8,29.90,ESE,120,2.0,3.0,78,0.00,,,0.00,Wunderground v.1.15,2013-06-14 07:55:00,
2013-06-14 03:00:00,79.2,71.7,29.90,ESE,120,2.0,2.0,78,0.00,,,0.00,Wunderground v.1.15,2013-06-14 08:00:00,
2013-06-14 03:05:00,79.1,71.6,29.90,ESE,120,1.0,2.0,78,0.00,,,0.00,Wunderground v.1.15,2013-06-14 08:05:00,
2013-06-14 03:10:00,79.1,71.6,29.90,ESE,120,1.0,1.0,78,0.00,,,0.00,Wunderground v.1.15,2013-06-14 08:10:00,
2013-06-14 03:15:00,79.0,71.6,29.90,ESE,120,1.0,1.0,78,0.00,,,0.00,Wunderground v.1.15,2013-06-14 08:15:00,
2013-06-14 03:20:00,79.0,71.6,29.90,ESE,120,1.0,2.0,78,0.00,,,0.00,Wunderground v.1.15,2013-06-14 08:20:00,
2013-06-14 03:25:00,79.1,71.6,29.90,ESE,120,1.0,2.0,78,0.00,,,0.00,Wunderground v.1.15,2013-06-14 08:25:00,
2013-06-14 03:35:00,79.0,71.6,29.90,ESE,120,2.0,2.0,78,0.00,,,0.00,Wunderground v.1.15,2013-06-14 08:35:00,
2013-06-14 03:45:00,78.9,71.5,29.90,SSE,159,2.0,2.0,78,0.00,,,0.00,Wunderground v.1.15,2013-06-14 08:45:00,
2013-06-14 03:50:00,78.9,71.8,29.90,SSE,159,2.0,4.0,79,0.00,,,0.00,Wunderground v.1.15,2013-06-14 08:50:00,
2013-06-14 03:55:00,78.8,71.7,29.89,SSE,161,2.0,4.0,79,0.00,,,0.00,Wunderground v.1.15,2013-06-14 08:55:00,
2013-06-14 04:05:00,78.3,71.6,29.89,South,171,3.0,4.0,80,0.00,,,0.00,Wunderground v.1.15,2013-06-14 09:05:00,
2013-06-14 04:10:00,78.1,71.4,29.90,South,174,2.0,2.0,80,0.00,,,0.00,Wunderground v.1.15,2013-06-14 09:10:00,
2013-06-14 04:15:00,78.0,71.7,29.90,South,174,2.0,2.0,81,0.00,,,0.00,Wunderground v.1.15,2013-06-14 09:15:00,
2013-06-14 04:20:00,78.0,71.7,29.90,South,177,1.0,1.0,81,0.00,,,0.00,Wunderground v.1.15,2013-06-14 09:20:00,
2013-06-14 04:25:00,77.9,71.6,29.90,South,177,1.0,1.0,81,0.00,,,0.00,Wunderground v.1.15,2013-06-14 09:25:00,
2013-06-14 04:35:00,77.5,71.9,29.90,South,177,2.0,2.0,83,0.00,,,0.00,Wunderground v.1.15,2013-06-14 09:35:00,
2013-06-14 04:45:00,77.1,71.9,29.89,South,178,2.0,2.0,84,0.00,,,0.00,Wunderground v.1.15,2013-06-14 09:45:00,
2013-06-14 04:50:00,76.8,71.9,29.89,South,178,2.0,2.0,85,0.00,,,0.00,Wunderground v.1.15,2013-06-14 09:50:00,
2013-06-14 05:00:00,76.7,71.5,29.89,SSW,194,2.0,2.0,84,0.00,,,0.00,Wunderground v.1.15,2013-06-14 10:00:00,
2013-06-14 05:05:00,76.7,71.5,29.89,SSW,194,2.0,2.0,84,0.00,,,0.00,Wunderground v.1.15,2013-06-14 10:05:00,
2013-06-14 05:10:00,76.6,71.4,29.89,SSW,194,2.0,2.0,84,0.00,,,0.00,Wunderground v.1.15,2013-06-14 10:10:00,
2013-06-14 05:20:00,76.6,71.4,29.89,SSW,195,2.0,2.0,84,0.00,,,0.00,Wunderground v.1.15,2013-06-14 10:20:00,
2013-06-14 05:25:00,76.6,71.4,29.89,SSW,196,2.0,2.0,84,0.00,,,0.00,Wunderground v.1.15,2013-06-14 10:25:00,
2013-06-14 05:30:00,76.5,71.3,29.90,SSW,195,2.0,2.0,84,0.00,,,0.00,Wunderground v.1.15,2013-06-14 10:30:00,
2013-06-14 05:35:00,76.5,71.3,29.90,SSW,195,2.0,2.0,84,0.00,,,0.00,Wunderground v.1.15,2013-06-14 10:35:00,
2013-06-14 05:40:00,76.5,71.3,29.90,SSW,194,2.0,2.0,84,0.00,,,0.00,Wunderground v.1.15,2013-06-14 10:40:00,
2013-06-14 05:45:00,76.5,71.3,29.90,SSW,194,2.0,2.0,84,0.00,,,0.00,Wunderground v.1.15,2013-06-14 10:45:00,
2013-06-14 05:50:00,76.3,71.1,29.90,SSW,194,2.0,2.0,84,0.00,,,0.00,Wunderground v.1.15,2013-06-14 10:50:00,
2013-06-14 06:00:00,76.0,70.8,29.90,SSW,194,2.0,2.0,84,0.00,,,0.00,Wunderground v.1.15,2013-06-14 11:00:00,
2013-06-14 06:05:00,76.0,70.8,29.90,SSW,194,2.0,2.0,84,0.00,,,0.00,Wunderground v.1.15,2013-06-14 11:05:00,
2013-06-14 06:10:00,75.9,70.7,29.91,SSW,194,2.0,4.0,84,0.00,,,0.00,Wunderground v.1.15,2013-06-14 11:10:00,
2013-06-14 06:20:00,75.7,70.9,29.91,SSW,194,2.0,2.0,85,0.00,,,0.00,Wunderground v.1.15,2013-06-14 11:20:00,
2013-06-14 06:30:00,75.6,70.8,29.92,SSW,194,1.0,1.0,85,0.00,,,0.00,Wunderground v.1.15,2013-06-14 11:30:00,
2013-06-14 06:35:00,75.4,70.6,29.92,SSW,194,1.0,1.0,85,0.00,,,0.00,Wunderground v.1.15,2013-06-14 11:35:00,
2013-06-14 06:40:00,75.3,70.5,29.92,SSW,193,1.0,1.0,85,0.00,,,0.00,Wunderground v.1.15,2013-06-14 11:40:00,
2013-06-14 06:45:00,75.3,70.5,29.92,SSW,193,1.0,2.0,85,0.00,,,0.00,Wunderground v.1.15,2013-06-14 11:45:00,
2013-06-14 06:50:00,75.2,70.4,29.92,SSW,192,2.0,2.0,85,0.00,,,0.00,Wunderground v.1.15,2013-06-14 11:50:00,
2013-06-14 06:55:00,75.2,70.0,29.92,SSW,192,2.0,3.0,84,0.00,,,0.00,Wunderground v.1.15,2013-06-14 11:55:00,
2013-06-14 07:05:00,75.6,70.4,29.92,SSW,192,2.0,2.0,84,0.00,,,0.00,Wunderground v.1.15,2013-06-14 12:05:00,
2013-06-14 07:10:00,75.9,70.4,29.92,South,186,3.0,3.0,83,0.00,,,0.00,Wunderground v.1.15,2013-06-14 12:10:00,
2013-06-14 07:20:00,76.3,70.4,29.93,South,188,4.0,5.0,82,0.00,,,0.00,Wunderground v.1.15,2013-06-14 12:20:00,
2013-06-14 07:25:00,76.6,70.3,29.93,South,186,3.0,5.0,81,0.00,,,0.00,Wunderground v.1.15,2013-06-14 12:25:00,
2013-06-14 07:35:00,76.9,71.0,29.93,South,185,3.0,3.0,82,0.00,,,0.00,Wunderground v.1.15,2013-06-14 12:35:00,
2013-06-14 07:40:00,77.0,71.1,29.93,South,178,3.0,4.0,82,0.00,,,0.00,Wunderground v.1.15,2013-06-14 12:40:00,
2013-06-14 07:45:00,77.1,70.8,29.94,South,184,3.0,4.0,81,0.00,,,0.00,Wunderground v.1.15,2013-06-14 12:45:00,
2013-06-14 07:50:00,77.3,71.0,29.94,South,184,4.0,4.0,81,0.00,,,0.00,Wunderground v.1.15,2013-06-14 12:50:00,
2013-06-14 07:55:00,77.5,70.8,29.94,South,180,4.0,4.0,80,0.00,,,0.00,Wunderground v.1.15,2013-06-14 12:55:00,
2013-06-14 08:05:00,78.0,71.0,29.94,South,191,4.0,4.0,79,0.00,,,0.00,Wunderground v.1.15,2013-06-14 13:05:00,
2013-06-14 08:10:00,78.3,71.2,29.94,South,189,3.0,3.0,79,0.00,,,0.00,Wunderground v.1.15,2013-06-14 13:10:00,
2013-06-14 08:20:00,79.5,70.5,29.94,SW,223,2.0,2.0,74,0.00,,,0.00,Wunderground v.1.15,2013-06-14 13:20:00,
2013-06-14 08:25:00,80.0,70.6,29.95,SW,215,2.0,2.0,73,0.00,,,0.00,Wunderground v.1.15,2013-06-14 13:25:00,
2013-06-14 08:30:00,80.4,70.5,29.95,SW,220,2.0,2.0,72,0.00,,,0.00,Wunderground v.1.15,2013-06-14 13:30:00,
2013-06-14 08:40:00,81.1,70.8,29.95,WSW,241,3.0,5.0,71,0.00,,,0.00,Wunderground v.1.15,2013-06-14 13:40:00,
2013-06-14 08:45:00,81.2,70.5,29.95,SW,227,4.0,6.0,70,0.00,,,0.00,Wunderground v.1.15,2013-06-14 13:45:00,
2013-06-14 08:50:00,81.4,70.7,29.95,WSW,240,4.0,4.0,70,0.00,,,0.00,Wunderground v.1.15,2013-06-14 13:50:00,
2013-06-14 08:55:00,81.6,70.4,29.95,SW,236,4.0,4.0,69,0.00,,,0.00,Wunderground v.1.15,2013-06-14 13:55:00,
2013-06-14 09:00:00,81.4,70.7,29.95,SW,225,4.0,4.0,70,0.00,,,0.00,Wunderground v.1.15,2013-06-14 14:00:00,
2013-06-14 09:05:00,81.7,71.0,29.95,WSW,246,4.0,4.0,70,0.00,,,0.00,Wunderground v.1.15,2013-06-14 14:05:00,
2013-06-14 09:10:00,82.1,71.3,29.96,SW,226,3.0,3.0,70,0.00,,,0.00,Wunderground v.1.15,2013-06-14 14:10:00,
2013-06-14 09:15:00,82.3,71.5,29.96,SSW,211,3.0,3.0,70,0.00,,,0.00,Wunderground v.1.15,2013-06-14 14:15:00,
2013-06-14 09:20:00,83.0,71.8,29.96,West,269,2.0,3.0,69,0.00,,,0.00,Wunderground v.1.15,2013-06-14 14:20:00,
2013-06-14 09:25:00,83.5,71.4,29.96,WSW,249,1.0,3.0,67,0.00,,,0.00,Wunderground v.1.15,2013-06-14 14:25:00,
2013-06-14 09:30:00,83.8,71.7,29.96,WSW,244,2.0,3.0,67,0.00,,,0.00,Wunderground v.1.15,2013-06-14 14:30:00,
2013-06-14 09:35:00,84.2,71.6,29.96,SSW,211,2.0,3.0,66,0.00,,,0.00,Wunderground v.1.15,2013-06-14 14:35:00,
2013-06-14 09:45:00,84.8,71.3,29.96,SW,227,3.0,3.0,64,0.00,,,0.00,Wunderground v.1.15,2013-06-14 14:45:00,
2013-06-14 09:50:00,85.3,70.8,29.96,SW,217,2.0,2.0,62,0.00,,,0.00,Wunderground v.1.15,2013-06-14 14:50:00,
2013-06-14 09:55:00,85.6,71.1,29.96,SW,217,2.0,2.0,62,0.00,,,0.00,Wunderground v.1.15,2013-06-14 14:55:00,
2013-06-14 10:00:00,86.1,71.1,29.96,SW,218,2.0,3.0,61,0.00,,,0.00,Wunderground v.1.15,2013-06-14 15:00:00,
2013-06-14 10:10:00,87.0,71.4,29.96,SW,219,2.0,3.0,60,0.00,,,0.00,Wunderground v.1.15,2013-06-14 15:10:00,
2013-06-14 10:15:00,87.2,71.1,29.96,SSW,197,2.0,3.0,59,0.00,,,0.00,Wunderground v.1.15,2013-06-14 15:15:00,
2013-06-14 10:25:00,87.9,70.8,29.96,SSW,210,1.0,2.0,57,0.00,,,0.00,Wunderground v.1.15,2013-06-14 15:25:00,
2013-06-14 10:30:00,88.3,70.6,29.96,SW,217,2.0,3.0,56,0.00,,,0.00,Wunderground v.1.15,2013-06-14 15:30:00,
2013-06-14 10:35:00,88.1,70.4,29.95,SSW,196,2.0,4.0,56,0.00,,,0.00,Wunderground v.1.15,2013-06-14 15:35:00,
2013-06-14 10:40:00,88.1,70.4,29.95,SSW,205,3.0,3.0,56,0.00,,,0.00,Wunderground v.1.15,2013-06-14 15:40:00,
2013-06-14 10:50:00,88.8,70.5,29.95,SW,230,3.0,3.0,55,0.00,,,0.00,Wunderground v.1.15,2013-06-14 15:50:00,
2013-06-14 10:55:00,89.0,70.2,29.95,SW,234,3.0,3.0,54,0.00,,,0.00,Wunderground v.1.15,2013-06-14 15:55:00,
2013-06-14 11:00:00,88.9,70.1,29.95,WSW,244,4.0,4.0,54,0.00,,,0.00,Wunderground v.1.15,2013-06-14 16:00:00,
2013-06-14 11:05:00,88.9,70.6,29.94,SW,229,4.0,4.0,55,0.00,,,0.00,Wunderground v.1.15,2013-06-14 16:05:00,
2013-06-14 11:10:00,89.5,70.7,29.94,SW,225,2.0,2.0,54,0.00,,,0.00,Wunderground v.1.15,2013-06-14 16:10:00,
2013-06-14 11:20:00,90.1,70.7,29.94,WSW,247,3.0,4.0,53,0.00,,,0.00,Wunderground v.1.15,2013-06-14 16:20:00,
2013-06-14 11:30:00,89.4,70.6,29.95,WSW,248,5.0,7.0,54,0.00,,,0.00,Wunderground v.1.15,2013-06-14 16:30:00,
2013-06-14 11:35:00,89.5,70.7,29.94,SSW,199,4.0,7.0,54,0.00,,,0.00,Wunderground v.1.15,2013-06-14 16:35:00,
2013-06-14 11:45:00,90.4,70.4,29.94,WSW,238,5.0,6.0,52,0.00,,,0.00,Wunderground v.1.15,2013-06-14 16:45:00,
2013-06-14 11:55:00,89.4,70.0,29.94,SW,217,5.0,6.0,53,0.00,,,0.00,Wunderground v.1.15,2013-06-14 16:55:00,
2013-06-14 12:00:00,89.6,70.2,29.94,WSW,246,4.0,4.0,53,0.00,,,0.00,Wunderground v.1.15,2013-06-14 17:00:00,
2013-06-14 12:05:00,90.0,70.6,29.94,WSW,243,3.0,4.0,53,0.00,,,0.00,Wunderground v.1.15,2013-06-14 17:05:00,
2013-06-14 12:10:00,90.2,70.8,29.94,SSW,194,3.0,3.0,53,0.00,,,0.00,Wunderground v.1.15,2013-06-14 17:10:00,
2013-06-14 12:15:00,90.4,70.9,29.94,SSW,201,4.0,5.0,53,0.00,,,0.00,Wunderground v.1.15,2013-06-14 17:15:00,
2013-06-14 12:20:00,90.5,69.9,29.94,SW,230,5.0,5.0,51,0.00,,,0.00,Wunderground v.1.15,2013-06-14 17:20:00,
2013-06-14 12:25:00,90.1,70.1,29.94,SSW,208,5.0,6.0,52,0.00,,,0.00,Wunderground v.1.15,2013-06-14 17:25:00,
2013-06-14 12:30:00,89.7,70.3,29.94,SW,223,5.0,6.0,53,0.00,,,0.00,Wunderground v.1.15,2013-06-14 17:30:00,
2013-06-14 12:35:00,89.7,69.7,29.94,South,184,6.0,6.0,52,0.00,,,0.00,Wunderground v.1.15,2013-06-14 17:35:00,
2013-06-14 12:40:00,89.5,70.7,29.94,SSW,211,5.0,5.0,54,0.00,,,0.00,Wunderground v.1.15,2013-06-14 17:40:00,
2013-06-14 12:50:00,89.2,70.9,29.93,SSW,213,4.0,5.0,55,0.00,,,0.00,Wunderground v.1.15,2013-06-14 17:50:00,
2013-06-14 13:00:00,90.1,70.1,29.93,WSW,241,4.0,4.0,52,0.00,,,0.00,Wunderground v.1.15,2013-06-14 18:00:00,
2013-06-14 13:05:00,90.1,70.7,29.93,SSW,202,4.0,4.0,53,0.00,,,0.00,Wunderground v.1.15,2013-06-14 18:05:00,
2013-06-14 13:10:00,90.6,71.1,29.93,SSW,194,3.0,6.0,53,0.00,,,0.00,Wunderground v.1.15,2013-06-14 18:10:00,
2013-06-14 13:15:00,90.6,71.1,29.93,WSW,253,2.0,6.0,53,0.00,,,0.00,Wunderground v.1.15,2013-06-14 18:15:00,
2013-06-14 13:25:00,91.2,70.5,29.93,South,171,4.0,4.0,51,0.00,,,0.00,Wunderground v.1.15,2013-06-14 18:25:00,
2013-06-14 13:30:00,90.9,70.8,29.93,SW,225,4.0,4.0,52,0.00,,,0.00,Wunderground v.1.15,2013-06-14 18:30:00,
2013-06-14 13:40:00,91.3,70.6,29.93,SE,130,3.0,3.0,51,0.00,,,0.00,Wunderground v.1.15,2013-06-14 18:40:00,
2013-06-14 13:45:00,91.2,71.1,29.92,SSE,153,3.0,4.0,52,0.00,,,0.00,Wunderground v.1.15,2013-06-14 18:45:00,
2013-06-14 13:55:00,90.9,71.4,29.92,South,186,4.0,5.0,53,0.00,,,0.00,Wunderground v.1.15,2013-06-14 18:55:00,
2013-06-14 14:00:00,91.0,70.9,29.92,South,174,4.0,4.0,52,0.00,,,0.00,Wunderground v.1.15,2013-06-14 19:00:00,
2013-06-14 14:05:00,91.0,70.9,29.92,SW,225,3.0,4.0,52,0.00,,,0.00,Wunderground v.1.15,2013-06-14 19:05:00,
2013-06-14 14:10:00,91.3,71.8,29.92,SW,215,2.0,2.0,53,0.00,,,0.00,Wunderground v.1.15,2013-06-14 19:10:00,
2013-06-14 14:15:00,91.6,71.5,29.92,SW,232,2.0,2.0,52,0.00,,,0.00,Wunderground v.1.15,2013-06-14 19:15:00,
2013-06-14 14:20:00,91.3,71.8,29.92,SW,228,2.0,2.0,53,0.00,,,0.00,Wunderground v.1.15,2013-06-14 19:20:00,
2013-06-14 14:25:00,91.3,71.8,29.91,South,188,3.0,7.0,53,0.00,,,0.00,Wunderground v.1.15,2013-06-14 19:25:00,
2013-06-14 14:30:00,91.0,70.9,29.91,SSE,158,5.0,5.0,52,0.00,,,0.00,Wunderground v.1.15,2013-06-14 19:30:00,
2013-06-14 14:40:00,91.1,71.6,29.91,SSE,165,4.0,6.0,53,0.00,,,0.00,Wunderground v.1.15,2013-06-14 19:40:00,
2013-06-14 14:45:00,90.8,70.7,29.91,South,175,5.0,6.0,52,0.00,,,0.00,Wunderground v.1.15,2013-06-14 19:45:00,
2013-06-14 14:55:00,91.6,72.0,29.91,SSE,153,3.0,4.0,53,0.00,,,0.00,Wunderground v.1.15,2013-06-14 19:55:00,
2013-06-14 15:05:00,91.7,71.0,29.90,South,189,5.0,5.0,51,0.00,,,0.00,Wunderground v.1.15,2013-06-14 20:05:00,
2013-06-14 15:10:00,91.8,71.1,29.90,SSE,153,6.0,7.0,51,0.00,,,0.00,Wunderground v.1.15,2013-06-14 20:10:00,
2013-06-14 15:20:00,92.4,71.1,29.90,SE,131,5.0,5.0,50,0.00,,,0.00,Wunderground v.1.15,2013-06-14 20:20:00,
2013-06-14 15:25:00,92.1,70.8,29.90,NE,45,4.0,5.0,50,0.00,,,0.00,Wunderground v.1.15,2013-06-14 20:25:00,
2013-06-14 15:30:00,92.2,70.9,29.90,ESE,113,4.0,8.0,50,0.00,,,0.00,Wunderground v.1.15,2013-06-14 20:30:00,
2013-06-14 15:35:00,91.9,71.2,29.89,South,181,6.0,8.0,51,0.00,,,0.00,Wunderground v.1.15,2013-06-14 20:35:00,
2013-06-14 15:40:00,91.9,71.2,29.89,SSE,165,7.0,7.0,51,0.00,,,0.00,Wunderground v.1.15,2013-06-14 20:40:00,
2013-06-14 15:45:00,91.7,71.0,29.89,ESE,113,6.0,7.0,51,0.00,,,0.00,Wunderground v.1.15,2013-06-14 20:45:00,
2013-06-14 15:50:00,92.3,71.6,29.89,SSE,156,5.0,5.0,51,0.00,,,0.00,Wunderground v.1.15,2013-06-14 20:50:00,
2013-06-14 16:00:00,92.4,70.5,29.89,SE,142,5.0,5.0,49,0.00,,,0.00,Wunderground v.1.15,2013-06-14 21:00:00,
2013-06-14 16:05:00,91.9,71.2,29.89,South,175,6.0,6.0,51,0.00,,,0.00,Wunderground v.1.15,2013-06-14 21:05:00,
2013-06-14 16:15:00,91.5,71.4,29.89,ESE,120,6.0,8.0,52,0.00,,,0.00,Wunderground v.1.15,2013-06-14 21:15:00,
2013-06-14 16:20:00,91.4,70.7,29.89,SE,133,5.0,5.0,51,0.00,,,0.00,Wunderground v.1.15,2013-06-14 21:20:00,
2013-06-14 16:25:00,91.5,70.8,29.89,SE,134,5.0,5.0,51,0.00,,,0.00,Wunderground v.1.15,2013-06-14 21:25:00,
2013-06-14 16:30:00,91.9,71.8,29.89,SSE,167,5.0,5.0,52,0.00,,,0.00,Wunderground v.1.15,2013-06-14 21:30:00,
2013-06-14 16:40:00,92.0,71.9,29.88,ESE,111,5.0,5.0,52,0.00,,,0.00,Wunderground v.1.15,2013-06-14 21:40:00,
2013-06-14 16:45:00,92.1,72.5,29.88,SSE,158,5.0,5.0,53,0.00,,,0.00,Wunderground v.1.15,2013-06-14 21:45:00,
2013-06-14 16:50:00,92.0,71.9,29.88,South,178,5.0,6.0,52,0.00,,,0.00,Wunderground v.1.15,2013-06-14 21:50:00,
2013-06-14 16:55:00,91.6,72.0,29.88,SE,142,6.0,8.0,53,0.00,,,0.00,Wunderground v.1.15,2013-06-14 21:55:00,
2013-06-14 17:05:00,91.8,71.7,29.88,SE,126,6.0,9.0,52,0.00,,,0.00,Wunderground v.1.15,2013-06-14 22:05:00,
2013-06-14 17:10:00,92.2,72.0,29.88,South,177,6.0,8.0,52,0.00,,,0.00,Wunderground v.1.15,2013-06-14 22:10:00,
2013-06-14 17:15:00,92.0,71.3,29.88,SE,140,6.0,8.0,51,0.00,,,0.00,Wunderground v.1.15,2013-06-14 22:15:00,
2013-06-14 17:25:00,91.4,71.9,29.88,SSE,155,6.0,11.0,53,0.00,,,0.00,Wunderground v.1.15,2013-06-14 22:25:00,
2013-06-14 17:30:00,91.4,71.3,29.88,South,188,6.0,8.0,52,0.00,,,0.00,Wunderground v.1.15,2013-06-14 22:30:00,
2013-06-14 17:35:00,90.9,70.8,29.88,SSW,206,6.0,8.0,52,0.00,,,0.00,Wunderground v.1.15,2013-06-14 22:35:00,
2013-06-14 17:40:00,90.8,71.9,29.88,South,187,6.0,6.0,54,0.00,,,0.00,Wunderground v.1.15,2013-06-14 22:40:00,
2013-06-14 17:45:00,90.9,72.0,29.87,South,178,5.0,6.0,54,0.00,,,0.00,Wunderground v.1.15,2013-06-14 22:45:00,
2013-06-14 17:50:00,90.9,72.0,29.87,SSW,202,4.0,6.0,54,0.00,,,0.00,Wunderground v.1.15,2013-06-14 22:50:00,
2013-06-14 17:55:00,90.8,72.4,29.87,South,173,4.0,6.0,55,0.00,,,0.00,Wunderground v.1.15,2013-06-14 22:55:00,
2013-06-14 18:00:00,90.8,71.9,29.87,SSE,163,4.0,4.0,54,0.00,,,0.00,Wunderground v.1.15,2013-06-14 23:00:00,
2013-06-14 18:05:00,90.9,72.5,29.87,SSE,168,4.0,7.0,55,0.00,,,0.00,Wunderground v.1.15,2013-06-14 23:05:00,
2013-06-14 18:10:00,90.7,72.8,29.87,SE,141,4.0,5.0,56,0.00,,,0.00,Wunderground v.1.15,2013-06-14 23:10:00,
2013-06-14 18:20:00,90.4,72.6,29.87,SSE,162,5.0,6.0,56,0.00,,,0.00,Wunderground v.1.15,2013-06-14 23:20:00,
2013-06-14 18:35:00,90.1,72.3,29.87,SSE,165,5.0,5.0,56,0.00,,,0.00,Wunderground v.1.15,2013-06-14 23:35:00,
2013-06-14 18:40:00,90.0,72.2,29.86,South,174,4.0,4.0,56,0.00,,,0.00,Wunderground v.1.15,2013-06-14 23:40:00,
2013-06-14 18:45:00,89.9,71.6,29.86,SSW,194,4.0,5.0,55,0.00,,,0.00,Wunderground v.1.15,2013-06-14 23:45:00,
2013-06-14 18:50:00,89.8,71.5,29.87,SSE,163,4.0,4.0,55,0.00,,,0.00,Wunderground v.1.15,2013-06-14 23:50:00,
2013-06-14 19:00:00,89.4,71.6,29.87,SSE,150,4.0,4.0,56,0.00,,,0.00,Wunderground v.1.15,2013-06-15 00:00:00,
2013-06-14 19:05:00,89.2,71.5,29.87,South,188,4.0,4.0,56,0.00,,,0.00,Wunderground v.1.15,2013-06-15 00:05:00,
2013-06-14 19:10:00,89.0,71.8,29.87,South,169,4.0,4.0,57,0.00,,,0.00,Wunderground v.1.15,2013-06-15 00:10:00,
2013-06-14 19:15:00,88.9,72.2,29.87,South,180,3.0,4.0,58,0.00,,,0.00,Wunderground v.1.15,2013-06-15 00:15:00,
2013-06-14 19:20:00,88.7,72.5,29.87,South,181,3.0,5.0,59,0.00,,,0.00,Wunderground v.1.15,2013-06-15 00:20:00,
2013-06-14 19:25:00,88.4,72.7,29.87,SSW,200,4.0,5.0,60,0.00,,,0.00,Wunderground v.1.15,2013-06-15 00:25:00,
2013-06-14 19:30:00,88.4,72.7,29.87,South,177,4.0,4.0,60,0.00,,,0.00,Wunderground v.1.15,2013-06-15 00:30:00,
2013-06-14 19:40:00,88.5,73.3,29.87,SSW,202,3.0,3.0,61,0.00,,,0.00,Wunderground v.1.15,2013-06-15 00:40:00,
2013-06-14 19:45:00,88.4,73.2,29.87,SSW,213,2.0,3.0,61,0.00,,,0.00,Wunderground v.1.15,2013-06-15 00:45:00,
2013-06-14 19:50:00,88.3,73.1,29.87,SSW,213,2.0,2.0,61,0.00,,,0.00,Wunderground v.1.15,2013-06-15 00:50:00,
2013-06-14 19:55:00,88.2,73.0,29.87,SSW,213,1.0,2.0,61,0.00,,,0.00,Wunderground v.1.15,2013-06-15 00:55:00,
2013-06-14 20:00:00,88.1,73.0,29.87,SSW,213,1.0,2.0,61,0.00,,,0.00,Wunderground v.1.15,2013-06-15 01:00:00,
2013-06-14 20:10:00,87.9,73.3,29.88,SSW,213,2.0,2.0,62,0.00,,,0.00,Wunderground v.1.15,2013-06-15 01:10:00,
2013-06-14 20:15:00,87.7,73.1,29.88,SSW,213,2.0,2.0,62,0.00,,,0.00,Wunderground v.1.15,2013-06-15 01:15:00,
2013-06-14 20:20:00,87.6,73.4,29.88,SSW,213,1.0,2.0,63,0.00,,,0.00,Wunderground v.1.15,2013-06-15 01:20:00,
2013-06-14 20:25:00,87.5,73.3,29.88,SSW,213,1.0,2.0,63,0.00,,,0.00,Wunderground v.1.15,2013-06-15 01:25:00,
2013-06-14 20:30:00,87.5,73.3,29.88,SSW,213,1.0,1.0,63,0.00,,,0.00,Wunderground v.1.15,2013-06-15 01:30:00,
2013-06-14 20:35:00,87.5,73.3,29.88,SSW,213,1.0,2.0,63,0.00,,,0.00,Wunderground v.1.15,2013-06-15 01:35:00,
2013-06-14 20:40:00,87.3,73.6,29.88,SSW,213,1.0,2.0,64,0.00,,,0.00,Wunderground v.1.15,2013-06-15 01:40:00,
2013-06-14 20:50:00,86.2,74.0,29.88,SE,142,2.0,2.0,67,0.00,,,0.00,Wunderground v.1.15,2013-06-15 01:50:00,
2013-06-14 20:55:00,85.9,74.1,29.88,SE,142,2.0,2.0,68,0.00,,,0.00,Wunderground v.1.15,2013-06-15 01:55:00,
2013-06-14 21:00:00,85.8,74.4,29.88,SE,142,1.0,1.0,69,0.00,,,0.00,Wunderground v.1.15,2013-06-15 02:00:00,
2013-06-14 21:05:00,85.7,74.4,29.88,SE,142,0.0,1.0,69,0.00,,,0.00,Wunderground v.1.15,2013-06-15 02:05:00,
2013-06-14 21:10:00,85.6,74.3,29.88,SE,142,0.0,1.0,69,0.00,,,0.00,Wunderground v.1.15,2013-06-15 02:10:00,
2013-06-14 21:15:00,85.6,74.3,29.89,SE,142,1.0,1.0,69,0.00,,,0.00,Wunderground v.1.15,2013-06-15 02:15:00,
2013-06-14 21:20:00,85.5,74.2,29.89,SE,142,2.0,2.0,69,0.00,,,0.00,Wunderground v.1.15,2013-06-15 02:20:00,
2013-06-14 21:25:00,85.6,74.3,29.89,SE,142,2.0,2.0,69,0.00,,,0.00,Wunderground v.1.15,2013-06-15 02:25:00,
2013-06-14 21:30:00,85.6,73.8,29.89,SE,142,1.0,1.0,68,0.00,,,0.00,Wunderground v.1.15,2013-06-15 02:30:00,
2013-06-14 21:40:00,85.2,74.3,29.88,SE,140,2.0,2.0,70,0.00,,,0.00,Wunderground v.1.15,2013-06-15 02:40:00,
2013-06-14 21:45:00,85.0,73.7,29.89,SE,140,1.0,2.0,69,0.00,,,0.00,Wunderground v.1.15,2013-06-15 02:45:00,
2013-06-14 21:50:00,85.0,73.3,29.89,SE,140,1.0,1.0,68,0.00,,,0.00,Wunderground v.1.15,2013-06-15 02:50:00,
2013-06-14 21:55:00,85.1,72.9,29.89,SE,140,0.0,1.0,67,0.00,,,0.00,Wunderground v.1.15,2013-06-15 02:55:00,
2013-06-14 22:05:00,85.4,72.7,29.89,SE,140,1.0,1.0,66,0.00,,,0.00,Wunderground v.1.15,2013-06-15 03:05:00,
2013-06-14 22:10:00,85.6,73.4,29.89,SE,140,1.0,1.0,67,0.00,,,0.00,Wunderground v.1.15,2013-06-15 03:10:00,
2013-06-14 22:15:00,85.6,72.5,29.90,SE,140,0.0,1.0,65,0.00,,,0.00,Wunderground v.1.15,2013-06-15 03:15:00,
2013-06-14 22:20:00,85.5,72.8,29.90,SE,140,1.0,2.0,66,0.00,,,0.00,Wunderground v.1.15,2013-06-15 03:20:00,
2013-06-14 22:25:00,85.4,72.7,29.90,SE,140,1.0,3.0,66,0.00,,,0.00,Wunderground v.1.15,2013-06-15 03:25:00,
2013-06-14 22:30:00,85.4,72.7,29.91,SE,140,2.0,2.0,66,0.00,,,0.00,Wunderground v.1.15,2013-06-15 03:30:00,
2013-06-14 22:35:00,85.3,72.6,29.91,SE,140,2.0,2.0,66,0.00,,,0.00,Wunderground v.1.15,2013-06-15 03:35:00,
2013-06-14 22:40:00,85.3,72.6,29.91,SE,140,1.0,1.0,66,0.00,,,0.00,Wunderground v.1.15,2013-06-15 03:40:00,
2013-06-14 22:45:00,85.2,72.6,29.91,SE,140,1.0,1.0,66,0.00,,,0.00,Wunderground v.1.15,2013-06-15 03:45:00,
2013-06-14 22:55:00,85.2,72.1,29.91,SE,140,1.0,2.0,65,0.00,,,0.00,Wunderground v.1.15,2013-06-15 03:55:00,
2013-06-14 23:10:00,85.3,71.7,29.92,SSE,155,3.0,4.0,64,0.00,,,0.00,Wunderground v.1.15,2013-06-15 04:10:00,
2013-06-14 23:15:00,85.3,71.7,29.92,SSE,159,3.0,4.0,64,0.00,,,0.00,Wunderground v.1.15,2013-06-15 04:15:00,
2013-06-14 23:20:00,85.3,72.2,29.91,SSE,161,3.0,3.0,65,0.00,,,0.00,Wunderground v.1.15,2013-06-15 04:20:00,
2013-06-14 23:25:00,85.1,72.5,29.92,SSE,161,3.0,3.0,66,0.00,,,0.00,Wunderground v.1.15,2013-06-15 04:25:00,
2013-06-14 23:35:00,84.7,73.4,29.91,SE,144,2.0,3.0,69,0.00,,,0.00,Wunderground v.1.15,2013-06-15 04:35:00,
2013-06-14 23:45:00,83.7,73.7,29.91,SE,137,2.0,2.0,72,0.00,,,0.00,Wunderground v.1.15,2013-06-15 04:45:00,
2013-06-14 23:50:00,83.6,74.0,29.92,SE,137,2.0,2.0,73,0.00,,,0.00,Wunderground v.1.15,2013-06-15 04:50:00,
2013-06-14 23:55:00,83.5,73.9,29.92,SE,137,2.0,2.0,73,0.00,,,0.00,Wunderground v.1.15,2013-06-15 04:55:00,